period_start,C,m1,H,J0,J1,J2,J3,J4,J5,JA,JB,JC,JD,JJ,JK,JN,#
2017-05-26 00:04:09,0.00,1.10,0.00,25.54,28.35,31.02,14.20,47.71,1006.85,2026.58,2987.53,2802.25,3201.83,599.91,585.28,48.60,0000 0000 0000 0000 000000
2017-05-26 00:09:10,-0.02,1.10,0.00,25.56,28.38,31.05,14.20,47.82,1006.87,2026.17,2987.01,2802.00,3201.10,599.91,585.19,48.65,0000 0000 0000 0000 000000
2017-05-26 00:14:11,0.00,1.10,0.00,25.60,28.41,31.09,14.19,47.73,1007.11,2026.01,2986.69,2801.84,3200.92,600.36,585.58,48.70,0000 0000 0000 0000 000000
2017-05-26 00:19:13,0.20,1.10,0.00,25.64,28.45,31.10,14.16,47.86,1007.30,2026.00,2983.20,2799.77,3198.73,599.77,585.08,48.75,0000 0000 0000 0000 000000
2017-05-26 00:24:14,0.05,1.11,0.00,25.69,28.48,31.15,14.16,47.75,1007.34,2026.00,2981.27,2798.80,3197.61,599.91,585.17,48.80,0000 0000 0000 0000 000000
2017-05-26 00:29:15,0.02,1.11,0.00,25.74,28.51,31.20,14.07,47.67,1007.34,2025.99,2980.98,2798.08,3197.01,599.92,585.16,48.85,0000 0000 0000 0000 000000
2017-05-26 00:34:17,0.01,1.11,0.00,25.79,28.54,31.22,14.16,47.65,1007.34,2025.95,2980.26,2797.99,3196.76,600.31,585.21,48.91,0000 0000 0000 0000 000000
2017-05-26 00:39:18,0.01,1.11,0.00,25.84,28.57,31.29,14.19,47.65,1007.34,2025.71,2979.76,2797.47,3196.05,600.37,585.35,48.96,0000 0000 0000 0000 000000
2017-05-26 00:44:20,-0.02,1.11,0.00,25.88,28.61,31.31,14.20,47.61,1007.35,2025.12,2979.02,2797.00,3195.36,600.16,585.13,49.01,0000 0000 0000 0000 000000
2017-05-26 00:49:21,0.04,1.11,0.00,25.93,28.64,31.35,14.19,47.79,1007.35,2025.03,2978.42,2796.39,3194.93,599.99,584.79,49.06,0000 0000 0000 0000 000000
2017-05-26 00:54:22,0.03,1.12,0.00,25.97,28.67,31.39,14.22,47.71,1007.45,2025.00,2977.74,2795.99,3194.19,599.75,584.72,49.11,0000 0000 0000 0000 000000
2017-05-26 00:59:23,0.04,1.12,0.00,26.03,28.71,31.42,14.10,47.57,1007.54,2025.00,2977.00,2795.34,3193.74,599.99,584.73,49.16,0000 0000 0000 0000 000000
2017-05-26 01:04:25,0.03,1.12,0.00,26.08,28.74,31.44,14.20,47.74,1007.76,2024.98,2976.13,2794.77,3192.95,600.33,585.09,49.21,0000 0000 0000 0000 000000
2017-05-26 01:09:26,0.04,1.12,0.00,26.12,28.78,31.49,14.22,47.63,1007.82,2024.89,2975.23,2794.03,3192.08,600.15,584.92,49.26,0000 0000 0000 0000 000000
2017-05-26 01:14:27,-0.01,1.12,0.00,26.16,28.82,31.53,14.12,47.71,1007.83,2024.49,2974.79,2793.64,3191.69,599.91,584.63,49.31,0000 0000 0000 0000 000000
2017-05-26 01:19:28,0.00,1.12,0.00,26.21,28.86,31.57,14.14,47.85,1007.83,2024.06,2974.03,2793.02,3190.94,599.88,584.43,49.36,0000 0000 0000 0000 000000
2017-05-26 01:24:30,0.05,1.12,0.00,26.25,28.90,31.60,14.13,47.74,1007.83,2024.01,2973.34,2792.45,3190.17,599.76,584.31,49.41,0000 0000 0000 0000 000000
2017-05-26 01:29:30,0.01,1.12,0.00,26.29,28.94,31.64,14.16,47.66,1007.83,2024.00,2972.98,2792.00,3189.90,599.97,584.40,49.46,0000 0000 0000 0000 000000
2017-05-26 01:34:32,0.04,1.13,0.00,26.34,28.98,31.67,14.16,47.78,1007.83,2023.97,2972.36,2791.68,3189.13,600.35,584.60,49.51,0000 0000 0000 0000 000000
2017-05-26 01:39:33,-0.02,1.13,0.00,26.38,29.02,31.71,14.04,47.72,1007.83,2023.66,2972.01,2791.05,3188.97,599.69,583.84,49.56,0000 0000 0000 0000 000000
2017-05-26 01:44:34,-0.02,1.12,0.00,26.41,29.06,31.74,14.18,47.77,1007.83,2023.15,2971.80,2791.00,3188.37,600.10,584.22,49.61,0000 0000 0000 0000 000000
2017-05-26 01:49:35,0.02,1.13,0.00,26.46,29.11,31.79,14.11,47.63,1007.83,2023.03,2971.21,2790.67,3188.01,600.28,584.33,49.66,0000 0000 0000 0000 000000
2017-05-26 01:54:36,0.01,1.13,0.00,26.50,29.14,31.82,14.15,47.67,1007.83,2023.00,2970.99,2790.04,3187.83,600.08,584.07,49.71,0000 0000 0000 0000 000000
2017-05-26 01:59:37,0.01,1.13,0.00,26.54,29.18,31.87,14.18,47.77,1007.83,2023.00,2970.72,2790.00,3187.14,599.70,583.59,49.76,0000 0000 0000 0000 000000
2017-05-26 02:04:39,0.02,1.13,0.00,26.59,29.22,31.91,14.14,47.68,1007.83,2022.98,2970.07,2789.76,3186.99,599.98,583.72,49.81,0000 0000 0000 0000 000000
2017-05-26 02:09:40,-0.02,1.13,0.00,26.63,29.26,31.96,14.15,47.73,1007.83,2022.65,2969.98,2789.13,3186.55,599.98,583.78,49.87,0000 0000 0000 0000 000000
2017-05-26 02:14:41,-0.02,1.13,0.00,26.68,29.30,32.00,14.08,47.64,1007.85,2022.09,2969.56,2789.00,3186.01,600.00,583.48,49.92,0000 0000 0000 0000 000000
2017-05-26 02:19:42,0.03,1.13,0.00,26.74,29.34,32.03,14.12,47.67,1007.84,2022.01,2969.01,2788.59,3185.71,599.91,583.41,49.97,0000 0000 0000 0000 000000
2017-05-26 02:24:43,0.01,1.13,0.00,26.76,29.38,32.05,14.12,47.63,1007.91,2022.00,2968.95,2788.03,3185.05,600.00,583.49,50.02,0000 0000 0000 0000 000000
2017-05-26 02:29:44,0.01,1.13,0.00,26.82,29.42,32.11,14.13,47.73,1008.02,2021.97,2968.22,2788.00,3184.99,599.91,583.49,50.07,0000 0000 0000 0000 000000
2017-05-26 02:34:46,0.01,1.13,0.00,26.85,29.46,32.13,14.24,47.77,1008.18,2021.89,2968.01,2787.88,3184.61,600.50,583.92,50.12,0000 0000 0000 0000 000000
2017-05-26 02:39:47,-0.01,1.13,0.00,26.90,29.50,32.19,14.15,47.70,1008.27,2021.44,2967.62,2787.11,3183.91,600.04,583.46,50.17,0000 0000 0000 0000 000000
2017-05-26 02:44:48,0.32,1.14,0.00,26.93,29.54,32.23,14.09,47.68,1008.29,2021.08,2963.04,2783.61,3180.09,599.98,583.39,50.22,0000 0000 0000 0000 000000
2017-05-26 02:49:49,0.44,1.16,0.00,26.99,29.57,32.27,14.09,47.67,1008.31,2021.00,2955.08,2777.48,3173.33,599.83,583.15,50.27,0000 0000 0000 0000 000000
2017-05-26 02:54:51,0.17,1.18,0.00,27.02,29.61,32.32,14.11,47.64,1008.31,2021.00,2950.50,2774.02,3169.57,600.16,583.43,50.32,0000 0000 0000 0000 000000
2017-05-26 02:59:52,0.05,1.18,0.00,27.06,29.65,32.35,14.07,47.52,1008.31,2020.96,2949.00,2773.00,3168.14,600.31,583.54,50.37,0000 0000 0000 0000 000000
2017-05-26 03:04:53,0.03,1.18,0.00,27.10,29.69,32.39,14.13,47.52,1008.32,2020.73,2948.05,2772.21,3167.57,600.15,583.20,50.42,0000 0000 0000 0000 000000
2017-05-26 03:09:54,0.01,1.18,0.00,27.14,29.73,32.45,14.17,47.73,1008.32,2020.20,2947.02,2771.57,3166.70,600.39,583.39,50.47,0000 0000 0000 0000 000000
2017-05-26 03:14:55,0.06,1.18,0.00,27.19,29.76,32.49,14.14,47.63,1008.32,2020.01,2945.94,2770.67,3165.66,600.14,583.06,50.52,0000 0000 0000 0000 000000
2017-05-26 03:19:57,0.03,1.19,0.00,27.22,29.80,32.52,14.09,47.66,1008.32,2020.00,2945.01,2770.01,3164.92,599.68,582.65,50.57,0000 0000 0000 0000 000000
2017-05-26 03:24:58,0.05,1.19,0.00,27.27,29.84,32.56,14.13,47.69,1008.33,2019.99,2944.29,2769.46,3164.13,600.28,583.04,50.62,0000 0000 0000 0000 000000
2017-05-26 03:29:59,0.02,1.19,0.00,27.31,29.89,32.60,14.11,47.65,1008.36,2019.93,2943.73,2768.99,3163.62,599.87,582.57,50.67,0000 0000 0000 0000 000000
2017-05-26 03:35:00,-0.02,1.19,0.00,27.34,29.93,32.63,14.04,47.61,1008.36,2019.53,2943.06,2768.42,3163.04,599.79,582.36,50.72,0000 0000 0000 0000 000000
2017-05-26 03:40:02,-0.01,1.19,0.00,27.38,29.98,32.67,14.09,47.57,1008.45,2019.10,2943.00,2768.02,3162.97,599.99,582.70,50.78,0000 0000 0000 0000 000000
2017-05-26 03:45:03,0.01,1.19,0.00,27.41,30.02,32.72,14.11,47.62,1008.56,2019.03,2942.76,2768.00,3162.43,600.13,582.74,50.83,0000 0000 0000 0000 000000
2017-05-26 03:50:04,0.03,1.19,0.00,27.44,30.06,32.74,14.09,47.60,1008.56,2019.00,2942.05,2767.64,3162.01,599.95,582.53,50.88,0000 0000 0000 0000 000000
2017-05-26 03:55:05,0.03,1.19,0.00,27.47,30.11,32.79,14.08,47.66,1008.68,2018.97,2941.81,2767.05,3161.52,599.96,582.63,50.93,0000 0000 0000 0000 000000
2017-05-26 04:00:07,0.01,1.19,0.00,27.51,30.15,32.83,14.09,47.54,1008.78,2018.86,2941.05,2766.76,3160.99,600.29,582.87,50.98,0000 0000 0000 0000 000000
2017-05-26 04:05:08,-0.01,1.19,0.00,27.54,30.19,32.87,14.08,47.57,1008.79,2018.30,2940.36,2766.02,3160.18,600.02,582.53,51.03,0000 0000 0000 0000 000000
2017-05-26 04:10:09,0.04,1.19,0.00,27.57,30.23,32.89,14.13,47.63,1008.78,2018.02,2939.49,2765.27,3159.55,599.96,582.46,51.08,0000 0000 0000 0000 000000
2017-05-26 04:15:11,0.01,1.20,0.00,27.58,30.27,32.95,14.04,47.55,1008.80,2018.00,2938.85,2764.92,3158.94,599.74,582.30,51.13,0000 0000 0000 0000 000000
2017-05-26 04:20:12,0.06,1.20,0.00,27.62,30.31,32.98,14.01,47.58,1008.80,2017.99,2937.98,2764.12,3158.10,599.64,582.20,51.18,0000 0000 0000 0000 000000
2017-05-26 04:25:13,0.02,1.20,0.00,27.66,30.35,33.02,14.14,47.52,1008.80,2017.91,2937.21,2763.83,3157.60,600.42,582.70,51.23,0000 0000 0000 0000 000000
2017-05-26 04:30:14,-0.01,1.20,0.00,27.68,30.38,33.05,14.07,47.60,1008.80,2017.50,2936.76,2763.07,3157.01,599.74,582.11,51.28,0000 0000 0000 0000 000000
2017-05-26 04:35:15,0.00,1.20,0.00,27.71,30.42,33.09,14.06,47.48,1008.80,2017.20,2936.05,2762.95,3156.64,599.86,582.09,51.33,0000 0000 0000 0000 000000
2017-05-26 04:40:16,0.03,1.20,0.00,27.75,30.45,33.14,14.12,47.62,1008.80,2017.02,2935.73,2762.24,3156.03,600.02,582.05,51.38,0000 0000 0000 0000 000000
2017-05-26 04:45:18,0.02,1.20,0.00,27.77,30.49,33.17,14.14,47.67,1008.81,2017.00,2935.03,2761.99,3155.71,600.03,582.17,51.43,0000 0000 0000 0000 000000
2017-05-26 04:50:19,0.04,1.20,0.00,27.81,30.52,33.21,14.06,47.60,1008.83,2017.00,2934.46,2761.51,3155.04,599.88,581.97,51.48,0000 0000 0000 0000 000000
2017-05-26 04:55:20,0.01,1.21,0.00,27.84,30.55,33.23,14.17,47.66,1008.87,2016.98,2934.00,2761.03,3154.71,600.56,582.37,51.53,0000 0000 0000 0000 000000
2017-05-26 05:00:22,0.02,1.21,0.00,27.87,30.59,33.27,14.12,47.43,1008.86,2016.92,2933.49,2760.92,3154.04,600.16,582.15,51.58,0000 0000 0000 0000 000000
2017-05-26 05:05:23,-0.01,1.21,0.00,27.90,30.62,33.30,14.13,47.51,1008.86,2016.48,2933.00,2760.12,3153.83,600.09,582.04,51.63,0000 0000 0000 0000 000000
2017-05-26 05:10:24,-0.00,1.21,0.00,27.93,30.66,33.34,14.11,47.55,1008.99,2016.05,2932.32,2759.99,3153.07,600.03,581.90,51.68,0000 0000 0000 0000 000000
2017-05-26 05:15:25,0.02,1.21,0.00,27.97,30.69,33.37,14.10,47.56,1009.14,2016.00,2931.99,2759.61,3152.92,600.01,581.91,51.74,0000 0000 0000 0000 000000
2017-05-26 05:20:26,0.04,1.21,0.00,28.00,30.72,33.40,14.09,47.60,1009.26,2016.00,2931.33,2759.03,3152.17,599.92,581.86,51.79,0000 0000 0000 0000 000000
2017-05-26 05:25:28,0.01,1.21,0.00,28.03,30.76,33.44,14.05,47.53,1009.28,2015.99,2930.96,2758.81,3151.90,599.82,581.67,51.84,0000 0000 0000 0000 000000
2017-05-26 05:30:29,0.04,1.21,0.00,28.07,30.79,33.46,14.10,47.52,1009.28,2015.98,2930.25,2758.09,3151.14,600.14,581.97,51.89,0000 0000 0000 0000 000000
2017-05-26 05:35:30,-0.01,1.21,0.00,28.09,30.82,33.49,14.15,47.58,1009.28,2015.84,2929.84,2757.96,3150.87,600.13,581.72,51.94,0000 0000 0000 0000 000000
2017-05-26 05:40:32,-0.01,1.21,0.00,28.12,30.85,33.54,14.07,47.42,1009.29,2015.26,2929.06,2757.21,3150.09,600.42,582.00,51.99,0000 0000 0000 0000 000000
2017-05-26 05:45:33,0.02,1.21,0.00,28.15,30.89,33.58,14.11,47.57,1009.29,2015.05,2928.30,2756.95,3149.70,599.87,581.51,52.04,0000 0000 0000 0000 000000
2017-05-26 05:50:34,0.03,1.21,0.00,28.16,30.92,33.61,13.98,47.39,1009.29,2015.00,2927.96,2756.18,3149.03,599.77,581.35,52.09,0000 0000 0000 0000 000000
2017-05-26 05:55:35,0.02,1.22,0.00,28.19,30.95,33.63,14.09,47.62,1009.29,2015.00,2927.29,2756.00,3148.87,600.30,581.80,52.14,0000 0000 0000 0000 000000
2017-05-26 06:00:37,0.01,1.22,0.00,28.22,30.98,33.66,14.09,47.54,1009.29,2014.96,2927.00,2755.90,3148.10,599.91,581.34,52.19,0000 0000 0000 0000 000000
2017-05-26 06:05:38,0.02,1.22,0.00,28.25,31.01,33.68,14.04,47.49,1009.29,2014.84,2926.58,2755.21,3147.99,599.83,581.27,52.24,0000 0000 0000 0000 000000
2017-05-26 06:10:39,-0.03,1.22,0.00,28.26,31.04,33.73,14.07,47.37,1009.29,2014.45,2926.04,2755.00,3147.53,599.93,581.29,52.29,0000 0000 0000 0000 000000
2017-05-26 06:15:41,-0.01,1.22,0.00,28.28,31.07,33.76,14.13,47.48,1009.30,2014.07,2925.76,2754.87,3147.01,600.21,581.57,52.34,0000 0000 0000 0000 000000
2017-05-26 06:20:42,0.03,1.22,0.00,28.31,31.10,33.80,14.07,47.48,1009.31,2014.00,2925.07,2754.18,3146.81,599.65,581.08,52.39,0000 0000 0000 0000 000000
2017-05-26 06:25:43,0.01,1.22,0.00,28.32,31.12,33.83,14.08,47.51,1009.31,2014.00,2924.96,2754.00,3146.07,599.99,581.29,52.44,0000 0000 0000 0000 000000
2017-05-26 06:30:45,0.01,1.22,0.00,28.34,31.15,33.84,14.02,47.40,1009.32,2013.99,2924.25,2753.89,3145.99,599.61,581.01,52.49,0000 0000 0000 0000 000000
2017-05-26 06:35:46,0.03,1.22,0.00,28.37,31.18,33.90,14.09,47.51,1009.34,2013.97,2924.00,2753.18,3145.51,599.91,581.05,52.54,0000 0000 0000 0000 000000
2017-05-26 06:40:48,-0.00,1.22,0.00,28.37,31.21,33.91,14.00,47.43,1009.31,2013.82,2923.73,2753.01,3145.03,599.44,580.61,52.59,0000 0000 0000 0000 000000
2017-05-26 06:45:49,-0.01,1.22,0.00,28.40,31.23,33.93,14.07,47.42,1009.29,2013.61,2923.10,2752.97,3144.97,599.96,581.08,52.64,0000 0000 0000 0000 000000
2017-05-26 06:50:50,-0.00,1.22,0.00,28.41,31.26,33.94,14.10,47.47,1009.30,2013.28,2922.95,2752.54,3144.47,600.16,581.33,52.70,0000 0000 0000 0000 000000
2017-05-26 06:55:51,0.02,1.22,0.00,28.42,31.28,33.97,14.08,47.35,1009.31,2013.05,2922.13,2752.01,3144.00,599.94,581.12,52.75,0000 0000 0000 0000 000000
2017-05-26 07:00:52,0.01,1.22,0.00,28.45,31.30,34.01,14.07,47.48,1009.30,2013.01,2921.88,2751.94,3143.54,599.80,580.87,52.80,0000 0000 0000 0000 000000
2017-05-26 07:05:54,0.04,1.22,0.00,28.46,31.32,34.03,14.09,47.43,1009.32,2013.00,2921.09,2751.19,3143.02,600.08,581.11,52.85,0000 0000 0000 0000 000000
2017-05-26 07:10:55,0.00,1.22,0.00,28.47,31.35,34.04,14.13,47.33,1009.39,2013.00,2920.98,2751.00,3142.94,600.51,581.64,52.90,0000 0000 0000 0000 000000
2017-05-26 07:15:56,0.02,1.23,0.00,28.47,31.37,34.07,14.04,47.36,1009.62,2012.99,2920.36,2751.00,3142.20,599.85,581.00,52.95,0000 0000 0000 0000 000000
2017-05-26 07:20:57,0.01,1.23,0.00,28.48,31.39,34.07,14.08,47.36,1009.69,2012.97,2920.01,2750.86,3142.00,600.11,581.37,53.00,0000 0000 0000 0000 000000
2017-05-26 07:25:59,0.01,1.23,0.00,28.49,31.41,34.11,14.01,47.38,1009.75,2012.90,2919.90,2750.16,3141.89,599.89,581.16,53.05,0000 0000 0000 0000 000000
2017-05-26 07:31:00,0.01,1.23,0.00,28.51,31.43,34.10,14.10,47.35,1009.78,2012.70,2919.15,2750.00,3141.21,600.08,581.17,53.10,0000 0000 0000 0000 000000
2017-05-26 07:36:02,0.01,1.23,0.00,28.52,31.45,34.13,14.00,47.34,1009.76,2012.51,2918.77,2749.87,3140.99,599.67,581.00,53.15,0000 0000 0000 0000 000000
2017-05-26 07:41:03,0.01,1.23,0.00,28.52,31.47,34.13,14.09,47.34,1009.75,2012.23,2918.01,2749.13,3140.36,600.10,581.42,53.20,0000 0000 0000 0000 000000
2017-05-26 07:46:05,0.01,1.23,0.00,28.54,31.49,34.16,13.98,47.42,1009.77,2012.03,2917.24,2748.98,3139.99,599.58,580.67,53.25,0000 0000 0000 0000 000000
2017-05-26 07:51:06,0.04,1.23,0.00,28.55,31.51,34.18,14.10,47.42,1009.77,2012.01,2916.83,2748.33,3139.39,600.32,581.40,53.30,0000 0000 0000 0000 000000
2017-05-26 07:56:07,0.01,1.23,0.00,28.56,31.52,34.19,14.05,47.38,1009.78,2012.00,2916.04,2747.99,3138.98,599.86,581.05,53.35,0000 0000 0000 0000 000000
2017-05-26 08:01:08,0.04,1.23,0.00,28.55,31.55,34.20,14.17,47.48,1009.78,2012.00,2915.55,2747.66,3138.30,600.25,581.41,53.40,0000 0000 0000 0000 000000
2017-05-26 08:06:10,0.01,1.24,0.00,28.54,31.56,34.19,14.16,47.25,1009.78,2012.00,2915.02,2747.08,3138.01,600.55,581.50,53.45,0000 0000 0000 0000 000000
2017-05-26 08:11:11,0.01,1.24,0.00,28.56,31.57,34.22,14.07,47.33,1009.78,2012.00,2914.75,2747.00,3137.84,600.06,581.08,53.50,0000 0000 0000 0000 000000
2017-05-26 08:16:12,0.04,1.24,0.00,28.56,31.59,34.24,14.14,47.43,1009.78,2011.99,2914.03,2746.53,3137.09,600.24,581.47,53.55,0000 0000 0000 0000 000000
2017-05-26 08:21:14,0.02,1.24,0.00,28.57,31.60,34.25,14.01,47.49,1009.78,2011.97,2913.64,2746.03,3136.98,599.73,580.86,53.61,0000 0000 0000 0000 000000
2017-05-26 08:26:15,0.01,1.24,0.00,28.58,31.62,34.25,14.05,47.44,1009.78,2011.96,2913.02,2746.00,3136.54,599.84,580.83,53.66,0000 0000 0000 0000 000000
2017-05-26 08:31:16,0.01,1.24,0.00,28.57,31.62,34.27,14.04,47.33,1009.79,2011.92,2912.87,2745.88,3136.04,599.99,581.05,53.71,0000 0000 0000 0000 000000
2017-05-26 08:36:18,0.03,1.24,0.00,28.59,31.64,34.28,14.12,47.48,1009.78,2011.85,2912.11,2745.19,3135.90,599.79,580.86,53.76,0000 0000 0000 0000 000000
2017-05-26 08:41:19,0.01,1.24,0.00,28.58,31.65,34.28,14.09,47.35,1009.79,2011.64,2911.36,2744.97,3135.10,599.89,581.01,53.81,0000 0000 0000 0000 000000
2017-05-26 08:46:21,0.03,1.24,0.00,28.57,31.66,34.29,14.08,47.29,1009.79,2011.62,2910.66,2744.44,3135.00,599.80,580.86,53.86,0000 0000 0000 0000 000000
2017-05-26 08:51:22,-0.01,1.24,0.00,28.58,31.67,34.30,14.04,47.38,1009.80,2011.28,2910.02,2744.01,3134.82,599.89,580.91,53.91,0000 0000 0000 0000 000000
2017-05-26 08:56:23,0.00,1.24,0.00,28.57,31.67,34.32,14.15,47.34,1009.80,2011.14,2909.97,2744.00,3134.17,600.14,581.19,53.96,0000 0000 0000 0000 000000
2017-05-26 09:01:24,0.01,1.24,0.00,28.58,31.70,34.31,14.17,47.36,1009.79,2011.05,2909.45,2743.95,3134.00,600.44,581.59,54.01,0000 0000 0000 0000 000000
2017-05-26 09:06:26,0.01,1.25,0.00,28.57,31.70,34.31,14.03,47.18,1009.79,2011.05,2909.03,2743.54,3133.98,599.80,580.89,54.06,0000 0000 0000 0000 000000
2017-05-26 09:11:27,0.01,1.25,0.00,28.59,31.70,34.32,14.06,47.27,1009.80,2011.03,2908.98,2743.05,3133.62,599.92,580.98,54.11,0000 0000 0000 0000 000000
2017-05-26 09:16:28,0.02,1.25,0.00,28.58,31.71,34.33,14.07,47.28,1009.79,2011.01,2908.38,2743.00,3133.05,599.82,580.91,54.16,0000 0000 0000 0000 000000
2017-05-26 09:21:29,0.00,1.25,0.00,28.57,31.72,34.33,14.06,47.36,1009.79,2011.01,2908.02,2742.99,3133.00,599.94,581.00,54.21,0000 0000 0000 0000 000000
2017-05-26 09:26:30,0.01,1.25,0.00,28.57,31.72,34.36,14.09,47.30,1009.79,2011.01,2907.99,2742.79,3132.98,599.83,581.07,54.26,0000 0000 0000 0000 000000
2017-05-26 09:31:32,0.04,1.25,0.00,28.55,31.72,34.37,14.09,47.34,1009.83,2011.01,2907.40,2742.24,3132.41,600.03,580.99,54.31,0000 0000 0000 0000 000000
2017-05-26 09:36:33,0.00,1.25,0.00,28.55,31.72,34.36,13.97,47.29,1009.94,2011.00,2907.02,2742.01,3132.05,599.35,580.60,54.36,0000 0000 0000 0000 000000
2017-05-26 09:41:34,0.00,1.25,0.00,28.56,31.73,34.38,14.03,47.32,1010.01,2011.00,2906.92,2742.00,3132.00,600.07,581.27,54.41,0000 0000 0000 0000 000000
2017-05-26 09:46:36,0.01,1.25,0.00,28.55,31.74,34.38,14.10,47.35,1010.07,2011.00,2906.20,2741.94,3131.89,600.05,581.32,54.46,0000 0000 0000 0000 000000
2017-05-26 09:51:37,0.02,1.25,0.00,28.54,31.75,34.38,14.04,47.28,1010.02,2011.00,2906.00,2741.50,3131.34,599.72,580.94,54.51,0000 0000 0000 0000 000000
2017-05-26 09:56:38,0.01,1.26,0.00,28.53,31.75,34.40,14.13,47.34,1009.99,2011.00,2905.93,2741.10,3131.04,599.99,581.28,54.57,0000 0000 0000 0000 000000
2017-05-26 10:01:40,0.01,1.26,0.00,28.53,31.75,34.38,14.11,47.34,1010.18,2011.00,2905.21,2741.00,3130.99,600.02,581.51,54.62,0000 0000 0000 0000 000000
2017-05-26 10:06:41,0.01,1.26,0.00,28.52,31.75,34.38,14.03,47.38,1010.18,2011.00,2904.99,2740.97,3130.75,599.92,581.26,54.67,0000 0000 0000 0000 000000
2017-05-26 10:11:42,0.03,1.26,0.00,28.50,31.75,34.35,14.15,47.35,1010.19,2011.00,2904.60,2740.64,3130.10,600.25,581.67,54.72,0000 0000 0000 0000 000000
2017-05-26 10:16:43,0.02,1.26,0.00,28.50,31.75,34.37,14.13,47.36,1010.24,2011.00,2904.02,2740.08,3130.00,600.43,581.80,54.77,0000 0000 0000 0000 000000
2017-05-26 10:21:45,0.00,1.26,0.00,28.49,31.75,34.38,14.08,47.44,1010.26,2011.00,2903.99,2740.00,3129.97,599.67,581.26,54.82,0000 0000 0000 0000 000000
2017-05-26 10:26:46,0.02,1.26,0.00,28.49,31.75,34.38,14.13,47.42,1010.24,2011.00,2903.47,2740.00,3129.69,600.50,581.92,54.87,0000 0000 0000 0000 000000
2017-05-26 10:31:48,0.01,1.26,0.00,28.47,31.73,34.36,14.04,47.27,1010.10,2011.00,2903.02,2739.91,3129.06,600.28,581.82,54.92,0000 0000 0000 0000 000000
2017-05-26 10:36:49,0.03,1.26,0.00,28.48,31.73,34.36,14.02,47.38,1009.92,2011.00,2902.78,2739.31,3129.00,599.71,581.07,54.97,0000 0000 0000 0000 000000
2017-05-26 10:41:50,0.04,1.26,0.00,28.46,31.72,34.36,14.10,47.31,1009.88,2011.00,2901.82,2739.00,3128.50,600.13,581.50,55.02,0000 0000 0000 0000 000000
2017-05-26 10:46:52,0.03,1.27,0.00,28.46,31.72,34.35,14.09,47.26,1009.98,2011.00,2900.97,2738.51,3127.99,600.19,581.44,55.07,0000 0000 0000 0000 000000
2017-05-26 10:51:53,0.03,1.27,0.00,28.45,31.72,34.37,14.11,47.38,1010.17,2011.00,2900.14,2738.02,3127.59,599.95,581.51,55.12,0000 0000 0000 0000 000000
2017-05-26 10:56:54,0.00,1.27,0.00,28.43,31.72,34.35,14.09,47.28,1010.22,2011.00,2900.00,2738.00,3127.04,600.13,581.93,55.17,0000 0000 0000 0000 000000
2017-05-26 11:01:55,0.00,1.27,0.00,28.42,31.72,34.34,14.04,47.35,1010.24,2010.99,2899.86,2737.99,3127.01,599.76,581.42,55.22,0000 0000 0000 0000 000000
2017-05-26 11:06:56,0.01,1.27,0.00,28.40,31.70,34.35,14.10,47.45,1010.26,2010.99,2899.22,2737.96,3127.00,600.12,581.79,55.27,0000 0000 0000 0000 000000
2017-05-26 11:11:58,0.01,1.27,0.00,28.37,31.70,34.36,14.09,47.35,1010.24,2010.99,2899.01,2737.76,3126.99,600.03,581.82,55.32,0000 0000 0000 0000 000000
2017-05-26 11:17:00,0.02,1.27,0.00,28.35,31.70,34.34,14.07,47.49,1010.27,2010.99,2898.99,2737.28,3126.93,599.64,581.51,55.37,0000 0000 0000 0000 000000
2017-05-26 11:22:01,0.00,1.27,0.00,28.34,31.69,34.34,14.06,47.37,1010.27,2010.99,2898.98,2737.07,3126.76,599.99,581.73,55.42,0000 0000 0000 0000 000000
2017-05-26 11:27:02,0.00,1.27,0.00,28.33,31.67,34.31,14.11,47.33,1010.27,2011.01,2898.95,2737.11,3126.81,599.90,581.71,55.48,0000 0000 0000 0000 000000
2017-05-26 11:32:03,0.02,1.27,0.00,28.31,31.67,34.31,14.09,47.45,1010.27,2011.01,2898.54,2737.04,3126.39,599.86,581.81,55.53,0000 0000 0000 0000 000000
2017-05-26 11:37:04,0.01,1.27,0.00,28.30,31.66,34.31,14.06,47.43,1010.27,2011.02,2898.07,2737.01,3126.13,599.80,581.71,55.58,0000 0000 0000 0000 000000
2017-05-26 11:42:06,0.00,1.27,0.00,28.27,31.65,34.32,14.12,47.49,1010.27,2011.02,2898.00,2737.00,3126.03,600.01,581.91,55.63,0000 0000 0000 0000 000000
2017-05-26 11:47:07,0.00,1.27,0.00,28.26,31.64,34.30,14.09,47.42,1010.27,2011.04,2898.00,2737.00,3126.01,600.00,581.94,55.68,0000 0000 0000 0000 000000
2017-05-26 11:52:08,0.01,1.27,0.00,28.25,31.62,34.31,14.19,47.44,1010.27,2011.09,2897.98,2737.00,3126.00,600.17,582.17,55.73,0000 0000 0000 0000 000000
2017-05-26 11:57:09,0.01,1.27,0.00,28.22,31.62,34.32,14.12,47.48,1010.27,2011.14,2897.87,2736.99,3126.00,600.06,582.11,55.78,0000 0000 0000 0000 000000
2017-05-26 12:02:10,0.02,1.27,0.00,28.20,31.60,34.28,14.17,47.34,1010.27,2011.22,2897.35,2736.99,3126.00,600.14,582.18,55.83,0000 0000 0000 0000 000000
2017-05-26 12:07:12,0.02,1.28,0.00,28.18,31.60,34.25,14.19,47.34,1010.27,2011.46,2897.06,2736.98,3126.00,599.99,582.09,55.88,0000 0000 0000 0000 000000
2017-05-26 12:12:13,0.02,1.28,0.00,28.17,31.57,34.27,14.11,47.37,1010.27,2011.57,2897.01,2736.95,3125.98,600.08,582.22,55.93,0000 0000 0000 0000 000000
2017-05-26 12:17:14,0.02,1.28,0.00,28.16,31.57,34.25,14.14,47.35,1010.27,2011.81,2897.00,2736.90,3125.95,600.06,582.22,55.98,0000 0000 0000 0000 000000
2017-05-26 12:22:15,0.01,1.28,0.00,28.12,31.55,34.20,14.10,47.46,1010.27,2011.89,2896.99,2736.83,3125.96,599.89,582.14,56.03,0000 0000 0000 0000 000000
2017-05-26 12:27:16,-0.00,1.28,0.00,28.10,31.55,34.20,14.06,47.39,1010.27,2011.93,2896.99,2736.89,3125.97,600.03,582.22,56.08,0000 0000 0000 0000 000000
2017-05-26 12:32:18,0.00,1.28,0.00,28.08,31.52,34.17,14.10,47.48,1010.26,2011.96,2896.98,2736.84,3125.97,600.08,582.43,56.13,0000 0000 0000 0000 000000
2017-05-26 12:37:19,0.01,1.28,0.00,28.06,31.51,34.19,14.13,47.48,1010.27,2011.97,2896.94,2736.66,3125.88,599.98,582.42,56.18,0000 0000 0000 0000 000000
2017-05-26 12:42:20,0.00,1.28,0.00,28.04,31.50,34.20,14.18,47.33,1010.26,2011.98,2896.77,2736.66,3125.83,600.00,582.47,56.23,0000 0000 0000 0000 000000
2017-05-26 12:47:22,0.03,1.28,0.00,28.02,31.48,34.22,14.08,47.40,1010.25,2011.99,2896.21,2736.25,3125.46,599.74,582.12,56.28,0000 0000 0000 0000 000000
2017-05-26 12:52:23,0.00,1.28,0.00,28.00,31.47,34.19,14.13,47.42,1010.27,2011.99,2896.02,2736.10,3125.22,599.74,582.18,56.33,0000 0000 0000 0000 000000
2017-05-26 12:57:25,0.00,1.28,0.00,27.97,31.45,34.15,14.22,47.46,1010.27,2011.99,2896.00,2736.06,3125.13,600.26,582.79,56.38,0000 0000 0000 0000 000000